Home > Weather > Livonia > Past weeks

Flag for U.S.A. Weather for the Past 2 Weeks in Livonia, Michigan, U.S.A.

Now
34 °F

Passing clouds.


Feels Like: 27 °F
Forecast: 26 / 39 °F
Wind: 9 mph from Southwest

Location: Detroit Metropolitan Wayne County Airport

Current Time: Feb 6, 2016 at 11:19:57 AM

Latest Report: Feb 6, 2016 at 10:53 AM


Visibility: 9 mi

Pressure: 30.30 "Hg

Humidity: 61%

Dew point: 22 °F

Location of LivoniaLocation

Historic Weather in Livonia — Graph

°F

Livonia Temperature Yesterday

Maximum temperature yesterday: 39 °F (at 1:53 PM)
Minimum temperature yesterday: 20 °F (at 4:53 AM)
Average temperature yesterday: 30 °F

High & Low Weather Summary for the Past Weeks

 TemperatureHumidityPressure
High55 °F (Feb 3, 11:53 AM)96% (Feb 3, 8:53 AM)30.40 "Hg (Feb 3, 8:53 AM)
Low18 °F (Jan 24, 4:53 AM)43% (Jan 29, 3:53 PM)29.46 "Hg (Feb 3, 5:53 AM)
Average34 °F72%29.97 "Hg
* Reported Jan 22 9:53 AM — Feb 6 9:53 AM, Livonia, Weather by CustomWeather, © 2016

Note: Actual official high and low records may vary slightly from our data, if they occured in-between our weather recording intervals... More about our weather records

Advertising

Livonia Weather History for the Previous 24 Hours

 ConditionsComfort  
Time TempWeatherWind HumidityBarometerVisibility
9:53 AM
Sat, Feb 6
31 °FPassing clouds.9 mph73%30.32 "Hg9 mi
8:53 AM27 °FPartly sunny.10 mph78%30.32 "Hg9 mi
7:53 AM26 °FPartly sunny.9 mph81%30.32 "Hg9 mi
6:53 AM25 °FPassing clouds.7 mph81%30.31 "Hg10 mi
5:53 AM25 °FClear.8 mph78%30.31 "Hg10 mi
4:53 AM26 °FPassing clouds.7 mph74%30.30 "Hg10 mi
3:53 AM26 °FPassing clouds.8 mph74%30.30 "Hg10 mi
2:53 AM28 °FPassing clouds.10 mph69%30.29 "Hg10 mi
1:53 AM29 °FPassing clouds.10 mph75%30.29 "Hg10 mi
12:53 AM32 °FMostly cloudy.7 mph75%30.29 "Hg9 mi
11:53 PM
Fri, Feb 5
32 °FMostly cloudy.7 mph75%30.29 "Hg9 mi
10:53 PM33 °FMostly cloudy.7 mph75%30.29 "Hg10 mi
9:53 PM33 °FMostly cloudy.7 mph75%30.31 "Hg10 mi
8:53 PM34 °FMostly cloudy.8 mph73%30.32 "Hg10 mi
7:53 PM36 °FPartly cloudy.12 mph59%30.33 "Hg10 mi
6:53 PM36 °FOvercast.7 mph59%30.33 "Hg10 mi
5:53 PM37 °FOvercast.9 mph54%30.33 "Hg10 mi
4:53 PM39 °FBroken clouds.15 mph46%30.32 "Hg10 mi
3:53 PM39 °FScattered clouds.16 mph46%30.32 "Hg10 mi
2:53 PM39 °FScattered clouds.8 mph48%30.32 "Hg10 mi
1:53 PM39 °FScattered clouds.8 mph50%30.33 "Hg10 mi
12:53 PM37 °FScattered clouds.9 mph57%30.35 "Hg10 mi
11:53 AM33 °FPassing clouds.6 mph66%30.38 "Hg10 mi
Weather by CustomWeather, © 2016

See weather overviewHow to use our weather pages